advocare.com alexa rank chart, advocare.com alexa rank daily changes

advocare.com alexa rank chart, advocare.com alexa rank daily changes

advocare.com
Actual rank:
49 246

RANK HISTORY

Date Rank Diff
2017/06/22 49 246 -345
2017/06/21 49 591 -610
2017/06/20 50 201 +590
2017/06/19 49 611 -48
2017/06/18 49 659 +70
2017/06/17 49 589 +143
2017/06/16 49 446 -715
2017/06/15 50 161 -315
2017/06/14 50 476 -248
2017/06/13 50 724 +276
2017/06/12 50 448 -126
2017/06/11 50 574 +345
2017/06/10 50 229 +475
2017/06/09 49 754 +85
2017/06/08 49 669 -92
2017/06/07 49 761 +1 053
2017/06/06 48 708 +955
2017/06/05 47 753 +1 130
2017/06/04 46 623 +391
2017/06/03 46 232 -524
2017/06/02 46 756 -98
2017/06/01 46 854 +54
2017/05/31 46 800 -392
2017/05/30 47 192 -369
2017/05/29 47 561 +631
2017/05/28 46 930 -342
2017/05/27 47 272 +677
2017/05/26 46 595 +204
2017/05/25 46 391 -357
2017/05/24 46 748 +28
2017/05/23 46 720 +484
2017/05/22 46 236 +233
2017/05/21 46 003 +114
2017/05/20 45 889 -311
2017/05/19 46 200 +120
2017/05/18 46 080 -405
2017/05/17 46 485 -782
2017/05/16 47 267 -14
2017/05/15 47 281 +281
2017/05/14 47 000 +314
2017/05/13 46 686 -420
2017/05/12 47 106 +544
2017/05/11 46 562 -495
2017/05/10 47 057 -314
2017/05/09 47 371 -204
2017/05/08 47 575 +367
2017/05/07 47 208 -496
2017/05/06 47 704 -554
2017/05/05 48 258 -1 054
2017/05/04 49 312 -773
2017/05/03 50 085 -302
2017/05/02 50 387 +526
2017/05/01 49 861 +372
2017/04/30 49 489 +561
2017/04/29 48 928 -147
2017/04/28 49 075 +6
2017/04/27 49 069 -422
2017/04/26 49 491 -550
2017/04/25 50 041 +880
2017/04/24 49 161 +889
2017/04/23 48 272

WIDGET FOR YOUR SITE

DOMAINS WITH THE NEAREST RANK

Domain Rank
kan.org.il 49 241
vigilantcitizen.com 49 242
changespeedyoutube.today 49 243
damanwoo.com 49 244
nfpa.org 49 245
advocare.com 49 246
webcamera.io 49 247
ruwix.com 49 248
gov.hr 49 249
karachan.org 49 250
bulbank.bg 49 251

DOMAINS WITH THE NEAREST RANK BY TLD .com

Domain Rank
thehealthorange.com 49 237
rfwireless-world.com 49 239
popular123.com 49 240
vigilantcitizen.com 49 242
damanwoo.com 49 244
advocare.com 49 246
ruwix.com 49 248
yekray.com 49 253
adslthailand.com 49 254
stage.com 49 255
zhenhesuan.com 49 256